Pagrindinis puslapis
METAR-TAF:

METAR-TAF

Oro uostai :

Torsby, Švedija

platuma: 60-09-17N, ilguma: 12-59-40E, Aukštis: 120 m

Dabartinis oras

Ataskaita buvo paskelbta 24 minutes, ne 21:20 UTC
Vėjas 3 kt nuo kintamojo kryptimis
Temperatūra 12°C
Drėgmė 94%
Slėgis 1011 hPa
Matomumas 10 km arba daugiau

METAR: ESST 162120Z AUTO VRB03KT 9999 OVC070/// 12/11 Q1011

Laikas: 23:44 (21:44 UTC)


TAF: trūkstamas

Orai ataskaitas ir orų prognozės (METAR, TAF).

turimą stotys yra geltonos ir raudonos taškus žemėlapyje.

Perkelti pele per norėdami pamatyti stoties vardą.

Tada spustelėkite, norėdami matyti oro stebėjimo ir prognozės.

Norėdami pakeisti žemėlapį: spustelėkite ant žalios mygtukų su juodo kryžiaus žemyn,; žalią mygtuką su brūkšneliu, jei norite nutolinti; arba žalių rodyklių gretimoms žemėlapius.


METAR-TAF: